Погода в Морджиме

Индия     15°37′38″N   73°44′13″E
темп.,
°C
ветер,
м/с
пор.,
м/с
влажн.,
%
обл.,
%
осадки,
мм/ч
давл.,
гПа
погр.,
м
6 мая, чт
чт623:30+29ссз236820 0.1 1008156
02:30+27с137328 0.0 1006152
05:30+28вюв117298 0.0 100758
08:30+30в1159100 0.0 1010380
11:30+31вюв2256100 0.0 1010649
14:30+33юз445292 0.0 1007640
17:30+32з445719 0.0 1007854
20:30+29сз36686 0.0 1008334
7 мая, пт
пт723:30+28юв11725 0.0 101022
02:30+27с237723 0.0 100788
05:30+27ссв117974 0.0 100847
08:30+31с126164 0.0 1011620
11:30+36сз224335 0.0 10101232
14:30+36з754630 0.0 10071399
17:30+32з4456100 0.1 10081069
20:30+29юв2371100 3.2 1011151
8 мая, сб
сб823:30+27всв1275100 3.3 101099
02:30+26ссз2475100 0.0 1007133
05:30+27св1274100 0.0 100868
08:30+28юв1171100 0.0 1010160
11:30+35зюз2145100 0.0 10091194
14:30+36з6447100 0.0 10061386
17:30+32сз3358100 1.1 1006964
20:30+28ссз2574100 3.3 1008307
9 мая, вс
вс923:30+28в227997 3.3 1009121
02:30+27ссв118263 0.0 100752
05:30+26ссз118232 0.0 100827
08:30+29св1273100 0.0 1010380
11:30+33з2352100 0.0 10091016
14:30+35з6448100 0.0 10061333
17:30+32зсз455896 0.1 1006740
20:30+29сз477099 0.3 1008578
10 мая, пн
пн1023:30+28ссз247599 0.3 1008300
02:30+27ссз2379100 0.0 1006142
05:30+27с2382100 0.0 1007103
08:30+31ссз34645 0.0 1009909
11:30+35з54455 0.0 10081435
14:30+34зсз66515 0.0 10061115
17:30+31зсз56595 0.1 10061016
20:30+29сз467191 0.0 1008764